Regional Weather Roundup
Issued by NWS

Home | Current Version | Previous Version | Text Only | Print | Product List | Glossary On
Versions: 1 2 3 4 5 6 7 8 9 10 11 12 13 14 15 16 17 18 19 20 21 22 23 24 25 26 27 28
000
ASUS45 KTFX 030710
RWRMT
MONTANA REGIONAL WEATHER ROUNDUP
NATIONAL WEATHER SERVICE GREAT FALLS MT
100 AM MDT TUE MAY 03 2016

NOTE: "FAIR" INDICATES FEW OR NO CLOUDS BELOW 12000 FEET WITH NO
SIGNIFICANT WEATHER AND/OR OBSTRUCTIONS TO VISIBILITY.

MTZ001>007-043-030800-
WEST OF THE DIVIDE

CITY           SKY/WX    TMP DP  RH WIND       PRES   REMARKS
KALISPELL      CLEAR     43  40  89 W5        30.08S
MISSOULA       CLEAR     48  37  65 CALM      30.12R
BUTTE          CLEAR     39  28  64 S5        30.20S
MULLAN PASS    CLEAR     53  31  42 N3        30.20S
$$

MTZ008-052>055-030800-
SOUTHWEST MONTANA

CITY           SKY/WX    TMP DP  RH WIND       PRES   REMARKS
BOZEMAN        CLEAR     41  30  65 E3        30.17R
DILLON         CLEAR     39  31  72 SW10      30.17S
ENNIS          CLEAR     39  23  52 NE6       30.24S
$$

MTZ009-010-012-014-046-048-049-054-030800-
EAST SLOPES AND CENTRAL MONTANA

CITY           SKY/WX    TMP DP  RH WIND       PRES   REMARKS
CUT BANK       CLEAR     50  36  58 SE6       30.10F
GREAT FALLS    CLEAR     43  34  70 SW8       30.11R
MALMSTROM AFB  CLEAR     43  37  79 S9        30.11R
HELENA         CLEAR     51  26  37 W6        30.13R
$$

MTZ011-013-016-021-045-047-050-051-030800-
NORTH CENTRAL MONTANA

CITY           SKY/WX    TMP DP  RH WIND       PRES   REMARKS
HAVRE          CLEAR     48  41  76 SW8       30.07S
LEWISTOWN      CLEAR     45  33  63 E6        30.15S
N BAR RANCH      N/A     46  32  57 W9        30.18S
$$

MTZ017>020-022>027-061-062-030800-
NORTHEAST MONTANA

CITY           SKY/WX    TMP DP  RH WIND       PRES   REMARKS
GLASGOW        CLEAR     50  38  63 NE8       30.03F
JORDAN           N/A     47  42  83 W7        30.06S
SIDNEY         CLEAR     43  34  70 CALM      30.03S
WOLF POINT     CLEAR     45  38  76 CALM      30.03S
$$

MTZ028>42-056>058-030800-
SOUTHCENTRAL AND SOUTHEAST MONTANA

CITY           SKY/WX    TMP DP  RH WIND       PRES   REMARKS
BAKER          CLEAR     46  35  65 CALM      30.07S
BILLINGS       CLEAR     56  35  45 SW7       30.14S
LIVINGSTON     CLEAR     44  30  57 S5        30.17R
MILES CITY     CLEAR     50  41  71 SW6       30.06S
$$

REGIONAL REPORTS...DAKOTAS

CITY           SKY/WX    TMP DP  RH WIND       PRES   REMARKS
WILLISTON      CLEAR     42  33  70 CALM      30.02S
MINOT          CLOUDY    57  36  45 SW10      29.97F
DICKINSON      CLEAR     40  31  70 SW5       30.01S
BEACH            N/A     41  36  81 S5        30.08S
CROSBY           N/A     45  32  61 W5        30.02S
TIOGA            N/A     41  36  81 W6        30.06S
WATFORD CITY     N/A     41  37  87 SW5       30.02S
BISMARCK       PTCLDY    42  40  92 CALM      30.02S
GRAND FORKS    CLOUDY    52  37  56 W10       29.92F
FARGO          PTCLDY    49  36  61 W7        29.96F
BUFFALO SD       N/A     42  32  67 W6        30.00S
RAPID CITY     CLEAR     43  36  76 NW10      30.07R
$$

REGIONAL REPORTS...WYOMING/IDAHO/WASHINGTON

CITY           SKY/WX    TMP DP  RH WIND       PRES   REMARKS
GILLETTE       CLEAR     44  35  70 W13       30.12S
SHERIDAN       CLEAR     46  33  60 SE5       30.14F
BUFFALO WY       N/A    N/A N/A N/A MISG      30.18S
CODY           CLEAR     50  30  46 SW6       30.19R
YELLOWSTONE LA   N/A     29  23  78 CALM      30.32S
IDAHO FALLS    CLEAR     43  27  53 CALM      30.20R
SALMON         CLEAR     43  30  61 CALM      30.14R
BOISE          CLEAR     56  31  38 SE6       30.10R
SPOKANE        CLEAR     61  41  47 CALM      30.05F
$$

REGIONAL REPORTS...ALBERTA

CITY           SKY/WX    TMP DP  RH WIND       PRES   REMARKS
EDMONTON       CLEAR     54  34  47 S6        29.96S
CALGARY        PTCLDY    57  32  38 S7        30.02F
LETHBRIDGE     CLEAR     52  34  50 S16       30.04S
MEDICINE HAT   CLEAR     50  41  71 S3        30.04S
WATERTON GATE    N/A     50  30  46 S9          N/A
CARDSTON         N/A     52  28  40 SW7         N/A
MILK RIVER       N/A     50  37  62 S7          N/A
$$

REGIONAL REPORTS...SASKATCHEWAN

CITY           SKY/WX    TMP DP  RH WIND       PRES   REMARKS
SWIFT CURRENT  CLEAR     52  36  54 S10       30.04S
REGINA         CLEAR     43  25  49 SW7       30.00S
SASKATOON      CLEAR     50  41  71 NW3       30.01S
CYPRESS HILLS    N/A     55  32  41 SW2         N/A
ROCKGLEN         N/A     54  32  43 W5          N/A
ASSINIBOIA       N/A     54  39  58 S6          N/A
$$




USA.gov is the U.S. government's official web portal to all federal, state and local government web resources and services.